Location: Saint-Br�vin-les-Pins
(47.2500°N, 2.1670°W)
Time: 03:06:18
(UTC+02:00)

ACS3 Solar Sail - Visible Passes

Search period start: 18 July 2024 00:00
Search period end: 28 July 2024 00:00
Orbit: 993 x 1023 km, 97.4° (Epoch: 17 July)

Date Brightness Start Highest point End Pass type
(mag) Time Alt. Az. Time Alt. Az. Time Alt. Az.
18 Jul 5.2 22:33:49 10° SE 22:39:48 53° ENE 22:45:51 10° N visible
19 Jul 6.4 00:18:53 10° SSW 00:24:12 29° W 00:29:35 10° NNW visible
19 Jul 4.9 23:07:54 10° SSE 23:14:07 90° SW 23:20:25 10° NNW visible
20 Jul 7.1 00:55:28 10° WSW 00:59:07 16° W 01:02:49 10° NW visible
20 Jul 5.5 23:42:37 10° S 23:48:38 51° W 23:54:44 10° NNW visible
21 Jul 5.1 22:32:55 10° SE 22:38:55 54° ENE 22:45:00 10° N visible
22 Jul 6.4 00:18:05 10° SSW 00:23:21 29° W 00:28:41 10° NNW visible
22 Jul 4.9 23:07:01 10° SSE 23:13:15 87° W 23:19:34 10° NNW visible
23 Jul 7.1 00:54:44 10° WSW 00:58:17 15° W 01:01:51 10° NW visible
23 Jul 5.6 23:41:47 10° S 23:47:47 50° W 23:53:51 10° NNW visible
24 Jul 5.1 22:32:00 10° SSE 22:38:02 56° ENE 22:44:09 10° N visible
25 Jul 6.4 00:17:17 10° SSW 00:22:31 28° W 00:27:48 10° NNW visible
25 Jul 4.9 23:06:08 10° SSE 23:12:23 85° WSW 23:18:42 10° NNW visible
26 Jul 7.1 00:54:01 10° WSW 00:57:27 15° W 01:00:53 10° NW visible
26 Jul 5.6 23:40:56 10° S 23:46:55 48° W 23:53:00 10° NNW visible
27 Jul 5.1 22:31:06 10° SSE 22:37:10 57° ENE 22:43:18 10° N visible
